Stevens Point, WI

1:18 PM CDT on August 21, 2017 (GMT -0500)
Stevens Point Municipal

Weather History for KSTE - October, 2012

Change the Weather History Date:

Thursday, October 4, 2012

  Actual Average Record
Temperature  
Mean Temperature 51 °F -  
Max Temperature 61 °F 63 °F 86 °F (2005)
Min Temperature 41 °F 41 °F 21 °F (1999)
Degree Days  
Heating Degree Days 14    
Growing Degree Days 1 (Base 50)    
Moisture  
Dew Point 38 °F    
Average Humidity 66    
Maximum Humidity 94    
Minimum Humidity 39    
Precipitation  
Precipitation 0.00 in - - ()
Sea Level Pressure  
Sea Level Pressure 29.95 in    
Wind  
Wind Speed 6 mph (WSW)    
Max Wind Speed 21 mph    
Max Gust Speed 31 mph    
Visibility 10 miles    
Events      
Averages and records for this station are not official NWS values.
T = Trace of Precipitation, MM = Missing Value Source: NWS Daily Summary

Daily Weather History Graph

Daily Weather History Graph

Search for Another Location

Airport or City:

Trip Planner

Search our weather history database for the weather conditions in past years. The results will help you decide how hot, cold, wet, or windy it might be!

Date:

Astronomy

Oct. 04, 2012 Rise Set
Actual Time 7:00 AM CDT 6:32 PM CDT
Civil Twilight 6:31 AM CDT 7:01 PM CDT
Nautical Twilight 5:57 AM CDT 7:35 PM CDT
Astronomical Twilight 5:23 AM CDT 8:09 PM CDT
Moon 8:57 PM CDT (10/4) 11:28 AM CDT (10/4)
Length of Visible Light 12h 30m
Length of Day
11h 32m
Waning Gibbous, 82% of the Moon is Illuminated
Oct 4
Waning Gibbous
Oct 8
Last Quarter
Oct 15
New
Oct 21
First Quarter
Oct 29
Full

Hourly Weather History & Observations

Time (CDT) Temp. Windchill Dew Point Humidity Pressure Visibility Wind Dir Wind Speed Gust Speed Precip Events Conditions
12:15 AM 45.3 °F - 41.5 °F 87% 29.99 in 10.0 mi Calm Calm - N/A   Clear
12:35 AM 44.8 °F - 41.5 °F 88% 29.98 in 10.0 mi Calm Calm - N/A   Clear
12:55 AM 44.1 °F - 40.8 °F 88% 29.98 in 10.0 mi Calm Calm - N/A   Clear
1:15 AM 43.9 °F - 40.3 °F 87% 29.98 in 10.0 mi Calm Calm - N/A   Clear
1:35 AM 44.6 °F - 40.6 °F 86% 29.98 in 10.0 mi Calm Calm - N/A   Clear
1:55 AM 43.7 °F - 41.0 °F 90% 29.98 in 10.0 mi Calm Calm - N/A   Clear
2:15 AM 44.1 °F - 41.4 °F 90% 29.97 in 10.0 mi Calm Calm - N/A   Clear
2:35 AM 43.0 °F - 41.2 °F 93% 29.97 in 10.0 mi Calm Calm - N/A   Clear
2:55 AM 42.6 °F - 39.6 °F 89% 29.96 in 10.0 mi Calm Calm - N/A   Clear
3:15 AM 42.8 °F - 40.3 °F 91% 29.96 in 10.0 mi Calm Calm - N/A   Clear
3:35 AM 42.1 °F - 39.4 °F 90% 29.95 in 10.0 mi Calm Calm - N/A   Clear
3:55 AM 42.4 °F - 39.6 °F 90% 29.95 in 10.0 mi Calm Calm - N/A   Clear
4:15 AM 42.3 °F - 39.7 °F 91% 29.94 in 10.0 mi Calm Calm - N/A   Clear
4:35 AM 41.9 °F - 39.9 °F 93% 29.94 in 10.0 mi Calm Calm - N/A   Clear
4:55 AM 42.4 °F - 40.1 °F 91% 29.94 in 10.0 mi Calm Calm - N/A   Scattered Clouds
5:15 AM 41.9 °F - 40.3 °F 94% 29.93 in 10.0 mi Calm Calm - N/A   Clear
5:35 AM 41.7 °F - 39.9 °F 93% 29.93 in 10.0 mi Calm Calm - N/A   Clear
5:55 AM 42.6 °F - 39.6 °F 89% 29.93 in 10.0 mi Calm Calm - N/A   Scattered Clouds
6:15 AM 44.4 °F - 40.8 °F 87% 29.93 in 10.0 mi Calm Calm - N/A   Clear
6:35 AM 45.5 °F - 42.4 °F 89% 29.91 in 10.0 mi Calm Calm - N/A   Clear
6:55 AM 44.1 °F - 41.4 °F 90% 29.91 in 10.0 mi Calm Calm - N/A   Clear
7:15 AM 45.3 °F - 42.3 °F 89% 29.91 in 10.0 mi Calm Calm - N/A   Clear
7:35 AM 46.8 °F - 43.5 °F 88% 29.91 in 10.0 mi Calm Calm - N/A   Clear
7:55 AM 49.6 °F - 46.9 °F 90% 29.91 in 10.0 mi SSW 4.6 mph - N/A   Clear
8:15 AM 52.9 °F - 48.0 °F 84% 29.90 in 10.0 mi South 5.8 mph - N/A   Clear
8:35 AM 55.2 °F - 47.8 °F 76% 29.89 in 10.0 mi South 8.1 mph - N/A   Clear
8:55 AM 57.0 °F - 47.8 °F 71% 29.89 in 10.0 mi SSW 10.4 mph - N/A   Clear
9:15 AM 58.1 °F - 48.2 °F 70% 29.89 in 10.0 mi SSW 11.5 mph 16.1 mph N/A   Clear
9:35 AM 58.1 °F - 47.8 °F 69% 29.89 in 10.0 mi SW 10.4 mph - N/A   Scattered Clouds
9:55 AM 58.3 °F - 47.3 °F 67% 29.89 in 10.0 mi SW 10.4 mph - N/A   Mostly Cloudy
10:15 AM 58.5 °F - 46.8 °F 65% 29.90 in 10.0 mi SW 13.8 mph - N/A   Mostly Cloudy
10:35 AM 58.1 °F - 46.4 °F 65% 29.88 in 10.0 mi SSW 13.8 mph 20.7 mph N/A   Scattered Clouds
10:55 AM 60.3 °F - 46.4 °F 60% 29.89 in 10.0 mi SW 11.5 mph 20.7 mph N/A   Clear
11:15 AM 61.3 °F - 46.4 °F 58% 29.89 in 10.0 mi SW 12.7 mph 19.6 mph N/A   Scattered Clouds
11:35 AM 60.8 °F - 43.7 °F 53% 29.89 in 10.0 mi WSW 17.3 mph 24.2 mph N/A   Scattered Clouds
11:55 AM 59.9 °F - 42.6 °F 53% 29.90 in 10.0 mi West 11.5 mph - N/A   Clear
12:15 PM 59.0 °F - 41.9 °F 53% 29.91 in 10.0 mi WSW 16.1 mph 23.0 mph N/A   Clear
12:35 PM 57.0 °F - 40.8 °F 55% 29.91 in 10.0 mi WSW 13.8 mph 24.2 mph N/A   Clear
12:55 PM 58.3 °F - 40.8 °F 52% 29.91 in 10.0 mi WSW 13.8 mph 24.2 mph N/A   Clear
1:15 PM 58.5 °F - 39.9 °F 50% 29.90 in 10.0 mi West 10.4 mph 23.0 mph N/A   Clear
1:35 PM 59.0 °F - 39.4 °F 48% 29.90 in 10.0 mi WSW 15.0 mph 23.0 mph N/A   Clear
1:55 PM 60.1 °F - 38.7 °F 45% 29.90 in 10.0 mi WSW 15.0 mph 21.9 mph N/A   Clear
2:15 PM 60.6 °F - 37.8 °F 43% 29.90 in 10.0 mi SW 16.1 mph 23.0 mph N/A   Clear
2:35 PM 59.9 °F - 35.8 °F 41% 29.91 in 10.0 mi WSW 18.4 mph 26.5 mph N/A   Mostly Cloudy
2:55 PM 60.6 °F - 35.6 °F 39% 29.91 in 10.0 mi WSW 12.7 mph 25.3 mph N/A   Scattered Clouds
3:15 PM 60.1 °F - 35.6 °F 40% 29.91 in 10.0 mi West 17.3 mph 23.0 mph N/A   Clear
3:35 PM 58.6 °F - 33.6 °F 39% 29.93 in 10.0 mi WSW 20.7 mph 28.8 mph N/A   Clear
3:55 PM 58.1 °F - 33.3 °F 39% 29.93 in 10.0 mi West 18.4 mph 27.6 mph N/A   Clear
4:15 PM 57.9 °F - 33.3 °F 39% 29.93 in 10.0 mi West 18.4 mph 26.5 mph N/A   Clear
4:35 PM 57.4 °F - 34.0 °F 41% 29.94 in 10.0 mi West 16.1 mph 21.9 mph N/A   Clear
4:55 PM 55.9 °F - 32.7 °F 41% 29.95 in 10.0 mi WSW 16.1 mph 28.8 mph N/A   Clear
5:15 PM 54.9 °F - 32.2 °F 42% 29.96 in 10.0 mi West 12.7 mph 26.5 mph N/A   Clear
5:35 PM 54.0 °F - 32.2 °F 44% 29.96 in 10.0 mi West 13.8 mph 28.8 mph N/A   Clear
5:55 PM 52.7 °F - 32.0 °F 45% 29.97 in 10.0 mi WSW 11.5 mph 24.2 mph N/A   Clear
6:15 PM 51.4 °F - 32.0 °F 47% 29.97 in 10.0 mi West 16.1 mph 25.3 mph N/A   Clear
6:35 PM 50.2 °F - 32.0 °F 50% 29.98 in 10.0 mi West 8.1 mph 20.7 mph N/A   Clear
6:55 PM 49.1 °F - 31.5 °F 51% 29.99 in 10.0 mi West 11.5 mph 21.9 mph N/A   Clear
7:15 PM 48.4 °F - 31.1 °F 51% 30.00 in 10.0 mi West 13.8 mph 25.3 mph N/A   Clear
7:35 PM 47.5 °F - 30.7 °F 52% 30.01 in 10.0 mi West 16.1 mph 31.1 mph N/A   Clear
8:15 PM 45.7 °F 39.5 °F 30.4 °F 55% 30.02 in 10.0 mi West 13.8 mph 26.5 mph N/A   Clear
8:35 PM 44.8 °F 37.7 °F 30.2 °F 57% 30.02 in 10.0 mi WSW 16.1 mph 24.2 mph N/A   Clear
9:15 PM 43.9 °F 37.5 °F 29.8 °F 58% 30.03 in 10.0 mi West 12.7 mph 25.3 mph N/A   Clear
9:35 PM 43.2 °F 36.6 °F 29.7 °F 59% 30.03 in 10.0 mi West 12.7 mph 20.7 mph N/A   Clear
9:55 PM 43.0 °F 35.4 °F 28.9 °F 58% 30.04 in 10.0 mi West 16.1 mph 29.9 mph N/A   Clear
10:15 PM 42.4 °F 35.7 °F 28.8 °F 58% 30.04 in 10.0 mi WNW 12.7 mph 23.0 mph N/A   Clear
10:35 PM 42.3 °F 34.4 °F 28.4 °F 58% 30.04 in 10.0 mi West 16.1 mph 24.2 mph N/A   Scattered Clouds
10:55 PM 41.9 °F 35.4 °F 28.8 °F 60% 30.04 in 10.0 mi West 11.5 mph 21.9 mph N/A   Mostly Cloudy
11:15 PM 42.1 °F 34.5 °F 28.4 °F 58% 30.05 in 10.0 mi West 15.0 mph 21.9 mph N/A   Overcast
11:35 PM 42.1 °F 33.3 °F 28.2 °F 58% 30.04 in 10.0 mi West 19.6 mph 27.6 mph N/A   Overcast
11:55 PM 42.1 °F 35.2 °F 28.2 °F 58% 30.05 in 10.0 mi West 12.7 mph 21.9 mph N/A   Overcast